Back to catalog

FENGYUN 1C DEB

AlivePO
NORAD 33599·DEBRIS·🇨🇳 China

Launched May 10, 1999 from Taiyuan Satellite Launch Center

Loading…

Next Passes (next 24 hours)

TLE

AgingSource: Space-Track

Epoch: Sep 5, 2026, 08:43 UTC

1 33599U 99025DCG 26248.36379316  .00034550  00000-0  82929-3 0  9994
2 33599  96.5840 290.1110 0079212  60.9674 299.9480 15.37997087700712

Track FENGYUN 1C DEB in real time with AllMySat

Download on the App Store